Location: Brunembert
(50.7122°N, 1.8935°E)
Time: 09:56:45
(UTC+00:00)

Cosmos 2344 - Pass Details

Date: 22 April 2021
Orbit: 1241 x 3001 km, 63.3° (Epoch: 05 May)

Event Time Altitude Azimuth Distance (km) Brightness Sun altitude
Rises 19:55:43 0° 219° (SW) 4,259 6.4 -8.8°
Reaches altitude 10° 19:58:28 10° 219° (SW) 3,232 5.8 -9.2°
Maximum altitude 20:05:53 85° 133° (SE) 1,271 3.6 -10.2°
Drops below altitude 10° 20:14:02 10° 45° (NE) 3,523 5.8 -11.2°
Sets 20:17:11 0° 45° (NE) 4,667 6.5 -11.6°
